Location: Gull Harbor
(47.1000°N, 122.9000°W)
Time: 05:57:54
(UTC-08:00)

Envisat - Pass Details

Date: 30 October 2019
Orbit: 764 x 766 km, 98.1° (Epoch: 22 November)

Event Time Altitude Azimuth Distance (km) Brightness Sun altitude
Rises 19:19:05 0° 171° (S) 3,220 6.2 -14.2°
Reaches altitude 10° 19:21:23 10° 174° (S) 2,298 5.5 -14.6°
Maximum altitude 19:26:26 70° 258° (WSW) 818 3.3 -15.5°
Drops below altitude 10° 19:31:32 10° 342° (NNW) 2,314 5.7 -16.3°
Sets 19:33:52 0° 345° (NNW) 3,245 6.4 -16.7°
